Regional Weather Roundup
Issued by NWS

Home | Current Version | Previous Version | Text Only | Print | Product List | Glossary On
Versions: 1 2 3 4 5 6 7 8 9 10 11 12 13 14 15 16 17 18 19 20 21 22 23 24 25 26 27 28 29 30 31 32 33 34 35 36 37 38 39 40 41 42 43 44 45 46 47 48 49 50
000
ASUS45 KSLC 280310
RWRUT

UTAH REGIONAL WEATHER ROUNDUP
NATIONAL WEATHER SERVICE SALT LAKE CITY UT
900 PM MDT WED AUG 27 2014

UTZ001>011-023>025-280400-

NORTHERN UTAH

CITY           SKY/WX    TMP DP  RH WIND       PRES   REMARKS
HILL AFB       MOCLDY    66  51  57 SE6       30.23R
LOGAN          MOCLDY    65  56  72 E6        30.20R
OGDEN          MOCLDY    70  49  47 SE5       30.21R
PROVO AIRPORT  PTCLDY    63  52  67 CALM      30.25R
SALT LAKE CITY MOCLDY    69  48  47 S5        30.20R
VERNAL         RAIN      56  55  97 CALM      30.28R
WENDOVER       CLEAR     75  41  29 S8        30.18R
HEBER CITY     CLOUDY    55  52  88 NE3       30.32S
WEST JORDAN    CLEAR     66  55  68 S5        30.24R

$$

UTZ012>022-026-027-280400-

SOUTHERN UTAH

CITY           SKY/WX    TMP DP  RH WIND       PRES   REMARKS
BRYCE CANYON   CLEAR     54  40  59 NW8       30.39R
CEDAR CITY     CLEAR     64  43  46 NE7       30.25R
MILFORD        CLEAR     67  46  47 NE5       30.23R
MOAB/CYNLANDS  MOCLDY    70  46  42 NW8       30.19R
PRICE          CLOUDY    61  51  70 VRB5      30.29R
ST GEORGE      MOCLDY    82  48  30 NE7       30.07R

$$

REGIONAL REPORTS     COLORADO/ARIZONA

CITY           SKY/WX    TMP DP  RH WIND       PRES   REMARKS
CRAIG, CO      CLOUDY    54  49  83 S9        30.29R
GRAND JUNCTION CLOUDY    59  56  89 S7        30.24S
RIFLE          CLOUDY    57  54  89 SE6       30.28R
MONTROSE       MOCLDY    57  47  69 SE7       30.31R
CORTEZ         MOCLDY    54  51  90 NE3       30.31
PAGE, AZ       PTCLDY    77  51  40 CALM      30.16R
GRAND CANYON     N/A    N/A N/A N/A MISG        N/A
KINGMAN        PTCLDY    78  45  30 S5        30.11R
FLAGSTAFF      RAIN      56  51  84 VRB3      30.39R

$$

REGIONAL REPORTS    NEVADA/IDAHO/WYOMING

CITY           SKY/WX    TMP DP  RH WIND       PRES   REMARKS
LAS VEGAS, NV  CLEAR     92  35  13 SE6       29.96R
ELY            CLEAR     60  42  51 CALM      30.30R
ELKO           CLEAR     70  37  29 SW3       30.19R
POCATELLO, ID  CLEAR     67  48  50 S10       30.17R
BURLEY         CLEAR     66  53  63 S3        30.14R
EVANSTON, WY   CLOUDY    50  49  96 SW10      30.35F
ROCK SPRINGS   LGT RAIN  51  49  92 W16       30.30R

$$



USA.gov is the U.S. government's official web portal to all federal, state and local government web resources and services.